Weather History for Spokane Fairchild, WA

Change the Weather History Date:

Monday, September 30, 2013

  Actual Average Record
Temperature  
Mean Temperature 48 °F -  
Max Temperature 56 °F 65 °F 78 °F (2008)
Min Temperature 41 °F 41 °F 39 °F (2002)
Degree Days  
Heating Degree Days 17    
Moisture  
Dew Point 42 °F    
Average Humidity 81    
Maximum Humidity 100    
Minimum Humidity 58    
Precipitation  
Precipitation 0.12 in - - ()
Sea Level Pressure  
Sea Level Pressure 29.62 in    
Wind  
Wind Speed 19 mph (South)    
Max Wind Speed 29 mph    
Max Gust Speed 39 mph    
Visibility 10 miles    
Events Rain    
Averages and records for this station are not official NWS values.
T = Trace of Precipitation, MM = Missing Value Source: NWS Daily Summary

Daily Weather History Graph

Daily Weather History Graph

Search for Another Location

Airport:

Trip Planner

Search our weather history database for the weather conditions in past years. The results will help you decide how hot, cold, wet, or windy it might be!

Date:

Astronomy

Sep. 30, 2013 Rise Set
Actual Time 6:48 AM PDT 6:31 PM PDT
Civil Twilight 6:18 AM PDT 7:01 PM PDT
Nautical Twilight 5:42 AM PDT 7:37 PM PDT
Astronomical Twilight 5:05 AM PDT 8:14 PM PDT
Moon 2:14 AM PDT (9/30) 4:18 PM PDT (9/30)
Length of Visible Light 12h 43m
Length of Day
11h 42m
Waning Crescent, 18% of the Moon is Illuminated
Sep 30
Waning Crescent
Oct 4
New
Oct 11
First Quarter
Oct 18
Full
Oct 26
Last Quarter

Hourly Weather History & Observations

Time (PDT) Temp. Windchill Dew Point Humidity Pressure Visibility Wind Dir Wind Speed Gust Speed Precip Events Conditions
12:48 AM 46.4 °F 38.7 °F 44.6 °F 93% 29.41 in 10.0 mi SSE 20.7 mph 29.9 mph N/A Rain Light Rain
12:58 AM 47.3 °F - 45.3 °F 93% 29.42 in 10.0 mi SSE 19.6 mph 28.8 mph 0.03 in Rain Light Rain
1:02 AM 48.2 °F - 46.4 °F 93% 29.41 in 10.0 mi SSE 20.7 mph 28.8 mph N/A Rain Light Rain
1:05 AM 48.2 °F - 46.4 °F 93% 29.41 in 9.0 mi SSE 17.3 mph 27.6 mph N/A Rain Light Rain
1:06 AM 48.2 °F - 46.4 °F 93% 29.40 in 9.0 mi SSE 18.4 mph 27.6 mph N/A Rain Light Rain
1:08 AM 48.2 °F - 46.4 °F 93% 29.41 in 9.0 mi SSE 16.1 mph 27.6 mph N/A Rain Light Rain
1:09 AM 48.2 °F - 46.4 °F 93% 29.41 in 9.0 mi SSE 16.1 mph 27.6 mph N/A Rain Light Rain
1:12 AM 48.2 °F - 46.4 °F 93% 29.41 in 10.0 mi SSE 15.0 mph - N/A Rain Light Rain
1:13 AM 48.2 °F - 46.4 °F 93% 29.41 in 10.0 mi SSE 16.1 mph 21.9 mph N/A Rain Light Rain
1:24 AM 48.2 °F - 46.4 °F 93% 29.41 in 9.0 mi SSE 15.0 mph 23.0 mph N/A Rain Light Rain
1:35 AM 48.2 °F - 46.4 °F 93% 29.43 in 7.0 mi SSE 17.3 mph 25.3 mph N/A Rain Light Rain
1:56 AM 48.2 °F - 46.4 °F 93% 29.42 in 9.0 mi South 17.3 mph - N/A Rain Light Rain
1:58 AM 48.0 °F - 46.9 °F 96% 29.42 in 10.0 mi South 17.3 mph 25.3 mph 0.08 in Rain Light Rain
2:03 AM 48.2 °F - 46.4 °F 93% 29.41 in 10.0 mi SSE 16.1 mph 25.3 mph N/A Rain Light Rain
2:06 AM 48.2 °F - 46.4 °F 93% 29.42 in 10.0 mi South 16.1 mph 25.3 mph N/A   Mostly Cloudy
2:08 AM 48.2 °F - 46.4 °F 93% 29.42 in 10.0 mi South 16.1 mph 25.3 mph N/A   Mostly Cloudy
2:14 AM 48.2 °F - 48.2 °F 100% 29.42 in 10.0 mi South 16.1 mph 23.0 mph N/A   Mostly Cloudy
2:20 AM 48.2 °F - 48.2 °F 100% 29.41 in 10.0 mi South 15.0 mph 23.0 mph N/A   Mostly Cloudy
2:49 AM 48.2 °F - 46.4 °F 93% 29.45 in 10.0 mi SSW 23.0 mph - N/A Rain Light Rain
2:58 AM 48.7 °F - 44.6 °F 86% 29.46 in 10.0 mi SSW 25.3 mph 33.4 mph 0.00 in Rain Light Rain
3:16 AM 48.2 °F - 44.6 °F 87% 29.47 in 10.0 mi SW 20.7 mph 29.9 mph N/A   Clear
3:58 AM 45.9 °F 38.5 °F 42.4 °F 88% 29.53 in 10.0 mi SSW 18.4 mph - 0.00 in   Clear
4:50 AM 44.6 °F 37.2 °F 41.0 °F 87% 29.56 in 10.0 mi SSW 17.3 mph 27.6 mph N/A   Clear
4:58 AM 44.2 °F 36.2 °F 40.6 °F 87% 29.59 in 10.0 mi SSW 19.6 mph - 0.00 in   Clear
4:59 AM 44.6 °F 36.9 °F 41.0 °F 87% 29.57 in 10.0 mi South 18.4 mph 25.3 mph N/A   Clear
5:16 AM 44.6 °F 37.2 °F 41.0 °F 87% 29.57 in 10.0 mi South 17.3 mph 24.2 mph N/A   Clear
5:23 AM 42.8 °F 34.5 °F 41.0 °F 93% 29.58 in 10.0 mi South 18.4 mph - N/A   Clear
5:24 AM 42.8 °F 34.3 °F 41.0 °F 93% 29.58 in 10.0 mi South 19.6 mph - N/A   Clear
5:41 AM 42.8 °F 34.8 °F 37.4 °F 81% 29.58 in 10.0 mi South 17.3 mph 28.8 mph N/A   Clear
5:58 AM 42.1 °F 33.3 °F 36.5 °F 81% 29.61 in 10.0 mi South 19.6 mph 27.6 mph 0.00 in   Clear
6:58 AM 41.5 °F 32.4 °F 37.4 °F 85% 29.62 in 10.0 mi South 20.7 mph 29.9 mph N/A   Clear
7:58 AM 43.7 °F 34.7 °F 37.9 °F 80% 29.65 in 10.0 mi South 23.0 mph 33.4 mph N/A   Partly Cloudy
8:58 AM 45.7 °F 37.4 °F 38.3 °F 75% 29.67 in 10.0 mi South 23.0 mph 35.7 mph 0.01 in   Scattered Clouds
9:58 AM 48.2 °F - 38.7 °F 70% 29.67 in 10.0 mi South 27.6 mph 39.1 mph N/A   Mostly Cloudy
10:58 AM 50.2 °F - 39.2 °F 66% 29.70 in 10.0 mi South 28.8 mph 39.1 mph N/A   Overcast
11:58 AM 51.3 °F - 39.4 °F 64% 29.72 in 10.0 mi South 26.5 mph 39.1 mph N/A   Mostly Cloudy
12:58 PM 51.6 °F - 39.6 °F 63% 29.75 in 10.0 mi SSW 27.6 mph 38.0 mph N/A   Mostly Cloudy
1:58 PM 54.3 °F - 40.6 °F 60% 29.75 in 10.0 mi SSW 28.8 mph 38.0 mph N/A   Partly Cloudy
2:58 PM 55.0 °F - 40.6 °F 58% 29.77 in 10.0 mi SSW 25.3 mph 39.1 mph N/A   Partly Cloudy
3:58 PM 53.2 °F - 39.7 °F 60% 29.81 in 10.0 mi SSW 25.3 mph 33.4 mph N/A   Overcast
4:00 PM 53.6 °F - 39.2 °F 58% 29.80 in 10.0 mi SSW 26.5 mph 32.2 mph N/A Rain Light Rain
4:43 PM 51.8 °F - 39.2 °F 62% 29.81 in 10.0 mi SSW 18.4 mph 28.8 mph N/A   Mostly Cloudy
4:58 PM 53.2 °F - 40.1 °F 61% 29.82 in 10.0 mi SSW 17.3 mph 26.5 mph 0.00 in   Mostly Cloudy
5:00 PM 53.6 °F - 41.0 °F 62% 29.81 in 10.0 mi SSW 18.4 mph 26.5 mph N/A Rain Light Rain
5:24 PM 51.8 °F - 41.0 °F 67% 29.81 in 10.0 mi SSW 18.4 mph 33.4 mph N/A   Mostly Cloudy
5:55 PM 51.8 °F - 41.0 °F 67% 29.81 in 10.0 mi South 23.0 mph 28.8 mph N/A Rain Light Rain
5:58 PM 52.3 °F - 40.6 °F 64% 29.83 in 10.0 mi South 19.6 mph 28.8 mph 0.00 in Rain Light Rain
6:10 PM 51.8 °F - 41.0 °F 67% 29.82 in 10.0 mi SSW 20.7 mph 29.9 mph N/A   Partly Cloudy
6:58 PM 50.2 °F - 39.4 °F 66% 29.85 in 10.0 mi South 16.1 mph 21.9 mph 0.00 in   Overcast
7:58 PM 48.9 °F - 39.2 °F 69% 29.87 in 10.0 mi SSW 18.4 mph 26.5 mph N/A   Scattered Clouds
8:58 PM 47.7 °F - 38.7 °F 71% 29.88 in 10.0 mi SSW 17.3 mph 24.2 mph N/A   Mostly Cloudy
9:58 PM 47.8 °F - 39.0 °F 71% 29.89 in 10.0 mi South 13.8 mph 21.9 mph N/A   Overcast
10:58 PM 44.8 °F 38.3 °F 38.5 °F 79% 29.90 in 10.0 mi South 13.8 mph - N/A   Partly Cloudy
11:33 PM 42.8 °F 35.1 °F 37.4 °F 81% 29.89 in 10.0 mi South 16.1 mph - N/A   Partly Cloudy
11:58 PM 43.5 °F 37.1 °F 37.9 °F 81% 29.91 in 10.0 mi South 12.7 mph - 0.00 in   Partly Cloudy
11:59 PM 42.8 °F 36.2 °F 37.4 °F 81% 29.89 in 10.0 mi South 12.7 mph - N/A   Partly Cloudy